Wind_Speed
3 6 9 10 11 12 11 10 9 9 8 7 8 10 10 9 7 5 4 5 6 6 9 12 16 19 20 19 15 13 12 10 8 6 5 5 7 8 8 9 11 12 11
2 4 8 11 12 12 11 9 9 9 9 9 8 9 11 10 9 6 5 5 5 6 8 11 16 20 23 23 19 15 14 12 10 8 7 6 6 7 7 7 10 12 13
2 3 7 10 12 12 11 9 8 9 10 9 9 10 11 10 9 7 6 6 6 5 6 8 13 20 23 25 22 18 16 13 11 10 9 8 6 6 6 6 8 11 12
3 3 6 10 11 12 11 9 8 9 10 10 10 11 11 11 9 7 7 6 5 5 5 4 7 16 22 25 24 20 18 15 13 12 10 9 7 6 5 5 6 8 9
5 4 6 9 10 11 10 9 8 8 9 11 11 12 12 11 10 8 8 7 5 4 4 3 2 11 20 25 24 22 20 18 16 14 12 10 7 7 6 5 4 5 5
7 6 6 8 9 10 10 9 8 8 9 10 12 12 12 11 10 9 8 7 6 4 3 3 1 5 16 23 24 22 21 21 20 18 15 11 8 8 5 4 3 3 3
8 6 6 7 9 9 9 9 8 9 9 11 12 13 12 11 10 10 9 7 6 5 3 2 2 2 8 18 21 21 20 20 20 18 14 11 9 7 5 5 4 3 3
9 7 6 7 8 8 9 9 9 9 10 11 14 15 14 13 11 10 9 8 6 6 5 3 2 2 5 8 12 13 14 14 16 13 11 10 7 6 5 5 6 5 5
9 8 8 8 8 9 9 9 9 10 11 12 15 16 16 14 12 10 10 9 7 7 7 7 7 6 6 7 9 10 11 12 12 11 9 7 5 4 5 6 7 7 7
10 9 8 8 8 9 10 10 10 11 12 13 16 18 17 15 13 12 11 9 8 8 9 10 10 11 10 10 11 12 13 13 13 13 11 8 6 6 6 8 8 9 8
10 9 8 9 9 9 10 11 12 11 12 14 16 18 18 15 14 13 12 10 10 9 9 11 13 14 14 14 14 15 16 15 15 14 13 11 9 8 8 8 9 9 9
10 9 10 10 10 10 11 13 13 12 12 14 16 18 18 17 16 14 13 12 10 10 9 10 13 16 17 18 18 18 18 17 17 17 16 14 12 11 10 9 9 10 11
10 10 11 12 12 12 13 14 15 14 13 14 16 19 19 18 16 15 14 13 11 10 9 9 12 15 18 20 20 20 20 21 21 21 20 18 15 13 12 11 10 10 12
12 13 13 13 13 13 14 15 16 16 16 16 18 20 19 17 16 16 15 14 12 11 10 9 11 14 17 18 18 19 21 22 23 22 23 21 18 15 14 13 12 12 14
14 15 15 16 15 15 15 15 16 16 16 17 18 19 19 17 16 17 16 14 13 12 11 10 11 13 15 17 17 18 19 21 22 22 22 21 19 17 16 14 13 13 15
16 16 17 17 17 16 16 16 16 16 17 18 18 19 18 17 17 17 16 14 13 13 12 12 12 12 14 16 17 17 18 19 21 22 22 21 19 17 16 15 14 14 16
16 16 16 17 17 17 17 18 18 18 18 18 19 19 18 17 18 19 17 15 13 13 13 13 13 13 14 15 16 16 15 15 16 18 19 19 19 16 14 14 14 15 17
17 16 14 16 17 17 18 19 19 19 19 19 19 20 19 18 18 20 20 16 14 13 13 14 15 15 15 15 16 16 14 14 14 15 17 18 18 17 14 13 14 15 17
19 17 15 16 17 18 20 20 20 21 20 21 21 21 21 20 19 20 22 20 16 14 15 16 16 16 16 15 15 15 14 14 14 15 16 17 18 18 16 15 15 15 15
20 19 18 18 19 19 20 21 21 22 22 22 23 23 23 22 22 22 23 23 20 18 17 17 18 17 16 15 14 14 13 13 13 14 15 16 17 18 16 16 16 15 15
19 20 20 19 20 20 21 21 21 23 23 23 24 25 25 24 25 24 24 26 25 22 20 19 19 19 17 15 14 14 13 12 12 13 14 15 16 16 16 17 16 16 15
19 20 20 20 21 21 22 22 22 24 24 24 25 25 26 27 27 27 26 27 28 26 23 21 20 20 18 17 16 15 13 13 11 11 12 13 14 15 15 17 17 16 16
20 20 20 20 21 22 22 22 23 23 24 25 26 27 28 29 29 28 27 27 29 28 25 23 21 22 21 20 19 17 16 14 12 11 11 11 12 13 14 16 17 18 17
22 21 20 21 21 21 21 22 23 23 25 27 28 29 30 31 30 28 27 27 28 28 25 22 23 23 22 21 21 20 19 17 14 12 11 10 9 10 12 14 17 19 19
23 21 20 20 20 20 22 23 24 26 28 30 30 30 31 31 30 29 27 26 26 25 23 22 23 24 22 22 22 22 20 19 18 15 13 11 9 8 9 11 14 17 19
22 20 20 20 21 22 23 24 26 27 29 29 30 30 30 29 28 27 26 25 24 24 23 21 20 21 20 21 22 23 22 21 21 19 16 13 11 9 8 9 10 13 17
Wind_Direction
28 26 15 10 8 6 5 5 11 16 15 14 12 10 2 353 341 316 287 269 261 252 243 234 225 221 217 211 207 203 199 195 185 174 175 180 185 189 199 208 215 217 216
352 9 9 4 3 4 3 3 10 13 9 3 358 358 356 351 344 324 303 289 280 272 265 248 231 221 217 210 206 204 201 200 199 192 184 185 184 188 198 208 215 216 217
313 352 1 1 360 360 0 0 4 7 4 358 351 346 346 343 341 333 318 309 302 296 292 271 232 214 212 207 204 204 203 205 208 206 198 196 197 190 189 198 207 214 217
271 314 345 355 357 356 356 358 359 359 358 353 345 339 337 334 332 333 330 325 317 318 320 301 221 208 205 203 203 204 207 210 213 209 207 211 212 197 194 196 201 204 210
252 285 328 347 354 356 355 359 360 357 354 349 343 336 333 329 323 323 331 329 324 325 336 340 226 208 204 204 205 208 212 216 213 211 212 216 212 198 201 210 199 182 193
250 274 311 335 349 358 1 3 360 355 352 348 343 336 331 325 316 311 318 322 317 315 331 357 22 212 210 207 208 213 217 219 217 214 211 210 206 191 202 226 219 194 208
247 268 296 322 342 359 6 7 358 348 346 345 342 336 328 323 314 304 304 311 306 300 300 333 24 97 192 205 211 218 221 218 216 214 208 208 209 204 216 246 249 247 258
245 264 284 312 334 355 4 3 354 345 338 339 341 338 330 324 319 305 295 296 295 286 275 256 238 157 147 180 196 202 204 204 209 206 215 222 229 222 233 261 259 259 260
245 257 275 301 326 347 358 356 348 343 337 335 337 337 334 330 326 314 297 289 285 274 261 243 231 219 197 186 189 193 195 197 198 201 214 231 256 261 262 274 270 262 261
243 253 273 299 319 339 351 356 350 342 338 334 333 333 332 331 331 323 308 291 278 268 255 244 233 227 220 213 209 209 210 211 211 213 221 236 250 263 273 275 272 264 257
239 251 271 294 309 326 336 349 350 342 336 332 328 328 329 327 328 327 316 301 279 267 259 248 238 232 229 226 224 222 222 221 224 228 233 242 250 258 266 272 270 260 248
242 255 274 289 301 314 324 338 344 342 336 330 328 327 328 329 328 328 320 309 287 269 262 251 240 235 233 232 231 230 230 231 234 238 241 246 250 256 262 267 265 254 239
252 255 269 285 296 306 317 329 334 336 339 338 336 334 331 329 328 327 319 311 294 272 260 249 239 237 238 238 236 235 236 238 242 245 246 247 248 252 259 262 259 250 233
256 264 270 278 289 298 309 321 327 328 335 340 341 340 334 330 330 331 323 309 298 279 263 249 241 241 243 243 239 238 239 242 245 247 249 249 248 251 257 258 254 245 229
260 267 275 281 288 295 304 316 321 322 327 332 336 338 334 331 330 336 334 315 299 284 269 257 248 244 244 246 245 242 243 244 245 247 247 247 249 253 257 256 250 239 225
266 269 275 280 289 297 303 312 316 317 321 324 328 333 332 329 327 330 337 327 305 286 271 258 254 248 245 249 249 247 248 248 248 246 244 244 248 252 253 250 243 232 220
274 274 279 284 292 298 302 306 312 314 313 314 320 324 326 324 323 322 325 326 312 293 274 259 253 250 247 249 249 248 251 252 251 244 240 239 241 245 247 243 236 225 217
282 280 285 289 295 299 300 301 306 311 310 308 311 316 317 317 316 318 315 315 311 296 277 261 255 252 252 250 247 248 252 253 252 246 240 238 239 240 240 233 224 219 216
286 287 293 297 296 298 301 302 303 308 309 307 306 308 309 308 308 309 310 306 304 293 279 265 258 254 254 252 247 247 251 255 254 249 241 240 241 240 235 226 220 217 217
282 285 293 299 297 297 302 305 305 306 306 304 302 300 301 299 298 299 299 302 300 293 278 265 256 252 252 249 245 244 249 256 258 250 243 242 242 240 234 227 222 220 223
281 285 291 295 295 297 302 305 304 303 303 300 297 296 294 292 291 291 292 294 296 294 283 267 254 248 246 243 241 242 246 252 258 250 242 241 241 239 233 229 226 225 229
279 283 288 293 295 297 301 303 304 305 303 300 298 295 292 289 288 288 288 288 289 289 283 268 251 242 240 239 238 237 241 246 253 251 243 240 238 235 231 229 226 226 231
275 279 285 289 293 297 300 303 304 302 301 300 298 296 292 289 287 287 286 285 283 282 280 268 250 238 235 234 233 234 235 238 244 245 241 238 236 234 231 228 225 224 230
274 278 282 286 292 296 300 302 303 303 303 302 301 297 293 291 288 286 284 281 279 277 274 267 252 241 234 233 232 232 233 234 234 235 236 235 235 236 235 231 227 224 227
270 274 279 286 292 297 302 305 306 305 305 304 302 298 293 290 287 283 280 278 275 272 267 262 253 244 238 234 234 234 232 230 229 231 233 232 231 235 239 238 233 227 227
264 270 280 289 295 301 304 306 306 305 304 302 299 297 295 291 285 280 276 274 269 265 259 260 252 247 243 240 238 236 233 229 226 227 230 232 231 233 237 241 240 234 230
Height
5888 5887 5886 5885 5884 5883 5881 5879 5878 5877 5876 5875 5875 5874 5873 5872 5871 5871 5871 5870 5870 5870 5871 5871 5871 5873 5875 5876 5878 5879 5881 5881 5882 5883 5883 5884 5885 5887 5889 5890 5891 5893 5894
5888 5887 5887 5885 5884 5883 5881 5879 5878 5877 5876 5875 5875 5874 5873 5872 5871 5870 5870 5870 5869 5869 5868 5868 5868 5870 5872 5875 5877 5879 5880 5881 5883 5883 5884 5884 5886 5887 5888 5889 5890 5892 5893
5888 5888 5887 5885 5884 5882 5881 5880 5878 5877 5876 5875 5874 5873 5872 5871 5870 5869 5869 5869 5868 5867 5867 5865 5865 5866 5869 5872 5875 5878 5879 5881 5883 5883 5884 5884 5885 5887 5888 5889 5890 5891 5892
5888 5888 5887 5885 5883 5882 5880 5879 5878 5877 5875 5874 5874 5873 5872 5870 5869 5869 5868 5868 5867 5867 5866 5864 5863 5865 5868 5871 5874 5876 5878 5880 5882 5883 5883 5884 5885 5887 5888 5888 5889 5890 5891
5887 5887 5886 5885 5883 5881 5880 5879 5877 5876 5875 5874 5873 5871 5870 5869 5868 5868 5868 5867 5866 5866 5866 5865 5864 5865 5867 5870 5873 5875 5877 5878 5880 5881 5883 5884 5885 5886 5887 5888 5889 5889 5890
5886 5886 5886 5884 5883 5881 5879 5878 5877 5876 5875 5873 5872 5870 5869 5868 5868 5867 5867 5867 5866 5866 5866 5865 5865 5865 5866 5868 5871 5873 5875 5876 5878 5879 5881 5882 5883 5885 5886 5887 5888 5889 5889
5885 5885 5885 5884 5882 5881 5879 5877 5876 5875 5874 5873 5871 5869 5868 5867 5867 5867 5866 5866 5866 5866 5866 5866 5866 5865 5865 5868 5870 5872 5873 5874 5876 5878 5880 5881 5882 5883 5885 5886 5887 5888 5889
5884 5884 5884 5883 5882 5881 5879 5877 5876 5875 5874 5872 5871 5869 5867 5866 5866 5866 5865 5865 5866 5865 5865 5866 5866 5866 5867 5868 5870 5871 5872 5874 5875 5877 5879 5881 5882 5883 5884 5886 5886 5887 5888
5883 5883 5883 5882 5882 5881 5879 5877 5875 5874 5872 5871 5870 5868 5867 5866 5865 5865 5864 5864 5865 5865 5865 5865 5866 5867 5868 5869 5870 5871 5872 5873 5875 5877 5879 5880 5881 5882 5883 5885 5886 5886 5887
5882 5882 5882 5882 5881 5880 5878 5876 5874 5873 5871 5870 5869 5867 5866 5864 5864 5863 5863 5863 5863 5863 5864 5864 5865 5866 5867 5868 5870 5871 5872 5873 5875 5876 5878 5879 5880 5881 5882 5883 5884 5885 5886
5880 5881 5881 5881 5881 5880 5877 5875 5873 5872 5870 5869 5868 5866 5864 5863 5862 5862 5861 5861 5861 5861 5862 5863 5864 5865 5866 5867 5868 5870 5871 5873 5874 5875 5877 5878 5879 5880 5881 5882 5882 5884 5885
5879 5879 5879 5880 5879 5878 5876 5874 5873 5871 5870 5868 5867 5865 5863 5861 5860 5860 5859 5859 5859 5859 5859 5860 5862 5863 5864 5865 5866 5868 5869 5871 5872 5873 5875 5876 5877 5879 5880 5880 5881 5882 5883
5877 5877 5877 5877 5877 5876 5875 5873 5872 5870 5869 5867 5866 5864 5862 5861 5859 5858 5858 5857 5857 5857 5857 5858 5859 5860 5861 5862 5864 5865 5867 5869 5870 5871 5873 5874 5876 5877 5878 5879 5880 5880 5881
5875 5874 5875 5874 5874 5873 5872 5871 5870 5869 5868 5866 5865 5863 5861 5860 5859 5857 5856 5855 5855 5855 5856 5856 5857 5858 5859 5860 5862 5863 5864 5865 5867 5869 5870 5872 5873 5875 5876 5877 5878 5879 5880
5873 5873 5872 5871 5871 5870 5869 5869 5868 5867 5866 5864 5863 5861 5859 5858 5857 5856 5854 5853 5853 5853 5854 5854 5855 5855 5856 5857 5859 5860 5861 5862 5864 5866 5867 5869 5871 5872 5873 5875 5876 5877 5878
5870 5870 5869 5869 5868 5867 5866 5866 5866 5865 5863 5862 5861 5859 5857 5856 5855 5853 5853 5852 5852 5852 5852 5852 5853 5853 5854 5855 5856 5857 5858 5859 5860 5862 5864 5866 5868 5869 5870 5871 5873 5874 5877
5867 5867 5866 5865 5865 5864 5863 5862 5862 5861 5861 5859 5858 5857 5855 5854 5852 5851 5850 5850 5850 5850 5850 5851 5851 5851 5851 5852 5853 5854 5855 5856 5857 5859 5861 5863 5865 5866 5867 5868 5870 5872 5874
5863 5863 5863 5862 5861 5861 5860 5858 5858 5858 5857 5856 5855 5854 5853 5851 5850 5849 5848 5848 5848 5848 5848 5848 5848 5849 5849 5850 5850 5851 5852 5854 5855 5856 5858 5860 5862 5863 5864 5866 5867 5870 5872
5859 5859 5859 5857 5857 5857 5856 5854 5854 5853 5853 5852 5852 5851 5850 5849 5848 5847 5846 5845 5845 5845 5845 5845 5845 5846 5846 5847 5847 5848 5849 5851 5852 5853 5855 5857 5858 5860 5862 5863 5865 5868 5870
5856 5855 5855 5854 5853 5852 5852 5850 5849 5849 5849 5849 5847 5846 5846 5845 5845 5844 5843 5842 5842 5842 5842 5842 5842 5842 5843 5844 5844 5845 5846 5848 5849 5850 5852 5854 5855 5857 5859 5861 5863 5865 5868
5853 5852 5851 5850 5849 5848 5848 5847 5846 5845 5845 5844 5843 5842 5841 5841 5841 5840 5839 5838 5838 5838 5838 5838 5838 5839 5840 5841 5842 5843 5844 5845 5846 5847 5849 5851 5852 5854 5856 5858 5861 5864 5866
5849 5848 5847 5846 5845 5844 5844 5843 5842 5841 5840 5839 5838 5837 5836 5835 5835 5835 5835 5833 5833 5833 5833 5833 5834 5835 5836 5837 5839 5839 5841 5843 5844 5845 5846 5848 5849 5851 5853 5855 5858 5861 5864
5844 5843 5842 5842 5841 5840 5839 5838 5837 5836 5835 5833 5832 5831 5830 5829 5828 5829 5829 5828 5827 5826 5827 5827 5829 5830 5831 5833 5835 5837 5838 5839 5840 5842 5843 5845 5847 5848 5850 5853 5855 5858 5861
5838 5837 5837 5837 5836 5836 5835 5834 5832 5831 5829 5828 5826 5824 5823 5821 5821 5821 5821 5821 5820 5820 5821 5821 5823 5824 5826 5828 5830 5833 5835 5837 5838 5839 5841 5843 5844 5846 5848 5850 5852 5855 5858
5832 5832 5832 5832 5832 5831 5830 5828 5827 5825 5823 5821 5819 5818 5816 5814 5813 5813 5813 5813 5813 5813 5814 5815 5816 5818 5821 5822 5825 5827 5830 5833 5835 5837 5839 5841 5842 5844 5845 5847 5849 5851 5854
5826 5826 5827 5827 5826 5825 5824 5823 5821 5819 5817 5815 5813 5811 5809 5807 5806 5806 5806 5806 5806 5807 5808 5809 5810 5813 5815 5817 5819 5822 5825 5828 5831 5833 5836 5838 5840 5841 5843 5845 5847 5848 5850